User: anonymous   Login
Location: Kitchener
(43.2612°N, 80.5078°W)
Time: 02:16:27
(UTC+02:00)
Language:

Iridium 57 - Orbit

View from above orbital plane
View from above orbital plane
View from above satellite
View from above satellite

Ground track
Ground track

The orbit data is extracted from the following two-line orbital elements,

1 25273U 98019B   16206.59998765  .00000053  00000-0  11778-4 0  9995
2 25273  86.3942  64.2728 0002275  88.7155 271.4301 14.34227716959112
Epoch (UTC): 24 July 2016 14:23:58
Eccentricity: 0.0002275
inclination: 86.3942°
perigee height: 776 km
apogee height: 779 km
right ascension of ascending node: 64.2728°
argument of perigee: 88.7155°
revolutions per day: 14.34227716
mean anomaly at epoch: 271.4301°
orbit number at epoch: 95911

The dashed part of the orbit path shows where the satellite is in the earth's shadow,  

DLR